Regional Weather Roundup
Issued by NWS

Home | Current Version | Previous Version | Graphics & Text | Print | Product List | Glossary On
Versions: 1 2 3 4 5 6 7 8 9 10 11 12 13 14 15 16 17 18 19 20 21 22 23 24 25 26 27
000
ASUS45 KCYS 121610
RWRWY

WYOMING REGIONAL WEATHER ROUNDUP
NATIONAL WEATHER SERVICE CHEYENNE WY
900 AM MST TUE DEC 12 2017

NOTE:  "FAIR" INDICATES FEW OR NO CLOUDS BELOW 12,000 FEET
WITH NO SIGNIFICANT WEATHER AND/OR OBSTRUCTIONS TO VISIBILITY.

WYZ001-121700-
YELLOWSTONE NATIONAL PARK

CITY           SKY/WX    TMP DP  RH WIND       PRES   REMARKS
LK YELLOWSTONE   N/A      8   5  87 CALM      30.55S
W YELLOWSTONE  NOT AVBL

$$
WYZ002>013-054>058-071-098>099-121700-
NORTHERN WYOMING

CITY           SKY/WX    TMP DP  RH WIND       PRES   REMARKS
JACKSON        FAIR      14   9  80 N7        30.58R WCI   4
CODY           FAIR      29  17  61 N8        30.32R WCI  21
GREYBULL       FAIR      17  10  74 CALM      30.35S
WORLAND        FAIR      20  17  88 CALM      30.35R
SHERIDAN       FAIR      35  25  66 CALM      30.19S
BUFFALO        FAIR      52  15  23 SW6       30.22F
GILLETTE       FAIR      46  19  34 VRB3      30.20F
HULETT         FAIR      37  19  48 SW12      30.21R WCI  30
NEWCASTLE      FAIR      32  19  59 NE6       30.24S WCI  26

$$
WYZ014>020-022>026-101>103-121700-
CENTRAL WYOMING

CITY           SKY/WX    TMP DP  RH WIND       PRES   REMARKS
BIG PINEY      FAIR      21  10  62 CALM      30.50R
PINEDALE       FAIR      19  14  79 CALM      30.50S
DUBOIS         FAIR      34   3  27 NW21      30.43S WCI  22
LANDER         FAIR      24  18  77 SE3       30.37S
RIVERTON       FAIR      22  17  81 CALM      30.38F
CASPER         FAIR      37  16  42 SW22      30.33S WCI  26
DOUGLAS        FAIR      34  24  67 CALM      30.29S

$$
WYZ021-027>030-104>119-121700-
SOUTHERN WYOMING

CITY           SKY/WX    TMP DP  RH WIND       PRES   REMARKS
EVANSTON       FAIR      34  12  40 S5        30.52R WCI  30
FORT BRIDGER   FAIR      40  10  29 W8        30.53R WCI  35
ROCK SPRINGS   FAIR      29  10  45 CALM      30.49R
DIXON          FAIR      17  10  73 CALM      30.55S
RAWLINS        FAIR      28  17  63 SE6       30.47R WCI  22
SARATOGA       FAIR      30  16  55 S13       30.48R WCI  20
LARAMIE        FAIR      37  18  46 S5        30.39F WCI  33
CHEYENNE       FAIR      50  15  24 W20       30.32S
TORRINGTON     FAIR      32  19  58 NW5       30.26F WCI  27
PINE BLUFFS    FAIR      34  18  51 MISG      30.30F

$$




USA.gov is the U.S. government's official web portal to all federal, state and local government web resources and services.